#timestamp,LO_Frequency,Hit,StdDev 
1512961215.5,286046989.3,N
1512961235.3,286046986.0,Y
1512961255.2,286046998.9,P
1512961275.9,286046996.4,N
1512961295.7,286046997.7,N
1512961315.5,286046997.5,N
1512961335.4,286046996.4,N
1512961355.2,286046997.6,N
1512961375.0,286046995.5,N
1512961375.9,286046995.5,N
1512961395.8,286046995.1,N
1512961415.6,286046993.8,N
1512961435.4,286046995.8,N
1512961455.3,286046999.5,N
1512961475.1,286047001.6,N
1512961476.0,286047001.6,N
1512961495.8,286047000.5,N
1512961515.7,286046996.6,N
1512961535.5,286046996.1,N
1512961555.3,286046996.6,N
1512961575.1,286047001.2,N
1512961595.9,286046997.0,N
1512961615.7,286047002.1,N
1512961635.5,286047000.6,N
1512961655.4,286046995.6,N
1512961675.2,286046994.3,N
1512961695.0,286046995.9,N
1512961695.9,286046995.9,N
1512961715.8,286046991.4,N
1512961735.6,286046987.7,Y
1512961755.4,286046988.5,P
1512961775.3,286046989.8,N
1512961795.1,286046987.9,P
1512961815.8,286046989.4,N
1512961835.7,286046987.3,Y
1512961855.5,286047000.4,P
1512961875.3,286047000.5,N
1512961895.2,286047004.8,N
1512961915.9,286047003.2,N
1512961935.7,286047001.5,N
1512961955.6,286047003.2,N
1512961975.4,286047001.4,N
1512961995.2,286047009.4,N
1512962015.0,286047010.3,N
1512962016.0,286047010.3,N
1512962035.8,286047008.8,N
1512962055.6,286047007.6,N
1512962075.5,286047018.5,Y
1512962095.3,286047011.7,P
1512962115.1,286047008.5,N
1512962135.8,286047005.1,N
1512962155.7,286047007.2,N
1512962175.5,286047006.9,N
1512962195.3,286047011.5,Y
1512962215.2,286047003.7,P
1512962235.0,286047004.4,N
1512962235.9,286047004.4,N
1512962255.7,286046999.7,N
1512962275.6,286047003.1,N
1512962295.4,286047001.4,N
1512962315.2,286046998.3,N
1512962335.1,286046999.0,N
1512962336.0,286046999.0,N
1512962355.8,286046998.8,N
1512962375.6,286047007.1,N
1512962395.5,286047009.9,Y
1512962415.3,286047009.8,P
1512962435.1,286047012.5,P
1512962455.9,286047015.3,P
1512962475.7,286047015.9,Y
1512962495.5,286047002.6,P
1512962515.4,286047001.0,N
1512962535.2,286046999.3,N
1512962555.0,286047001.8,N
1512962555.9,286047001.8,N
1512962575.8,286047002.7,N
1512962595.6,286047002.2,N
1512962615.4,286046999.6,N
1512962635.3,286046994.1,N
1512962655.1,286046992.0,N
1512962656.0,286046992.0,N
1512962675.8,286046995.1,N
1512962695.6,286046998.7,N
1512962715.5,286047003.8,N
1512962735.3,286047004.8,N
1512962755.1,286047001.3,N
1512962775.9,286046998.5,N
1512962795.7,286046999.0,N
1512962815.5,286046996.7,N
1512962835.4,286046998.9,N
1512962855.2,286046999.6,N
1512962875.0,286046995.1,N
1512962875.9,286046995.1,N
1512962895.8,286046995.2,N
1512962915.6,286047000.2,N
1512962935.4,286047004.5,N
1512962955.3,286047005.8,N
1512962975.1,286047011.9,N
1512962976.0,286047011.9,N
1512962995.8,286047013.5,N
1512963015.7,286047008.0,N
1512963035.5,286047003.0,N
1512963055.3,286047003.5,N
1512963075.1,286047006.7,N
1512963095.9,286047007.0,N
1512963115.7,286047006.7,N
1512963135.5,286047008.2,N
1512963155.4,286047007.0,N
1512963175.2,286047006.4,N
1512963195.0,286047005.5,N
1512963195.9,286047005.5,N
1512963215.8,286047003.9,N
1512963235.6,286047001.6,N
1512963255.4,286046998.5,N
1512963275.3,286047000.3,N
1512963295.1,286047000.2,N
1512963296.0,286047000.2,N
1512963315.8,286047004.4,N
1512963335.7,286046998.1,N
1512963355.5,286047000.1,N
1512963375.3,286047005.9,N
1512963395.1,286047001.7,N
1512963415.9,286046999.4,N
1512963435.7,286046995.3,N
1512963455.5,286046993.8,N
1512963475.4,286046993.7,N
1512963495.2,286046994.8,N
1512963515.0,286046995.6,N
1512963515.9,286046995.6,N
1512963535.8,286046993.8,N
1512963555.6,286046993.3,N
1512963575.4,286046994.7,N
1512963595.3,286046991.2,N
1512963615.1,286046988.8,N
1512963616.0,286046988.8,N
1512963635.8,286046989.8,N
1512963655.7,286046991.2,N
1512963675.5,286046991.4,N
1512963695.3,286046988.8,N
1512963715.2,286046984.4,N
1512963735.9,286046982.3,Y
1512963755.7,286046987.8,P
1512963775.6,286046986.2,P
1512963795.4,286046986.1,P
1512963815.2,286046990.6,N
1512963835.0,286046992.3,N
1512963836.0,286046992.3,N
1512963855.8,286046992.0,N
1512963875.6,286046991.2,N
1512963895.5,286046988.7,Y
1512963915.3,286047002.7,P
1512963935.1,286047002.4,N
1512963955.8,286047002.4,N
1512963975.7,286047001.4,N
1512963995.5,286047003.3,N
1512964015.3,286047006.3,N
1512964035.2,286047006.9,N
1512964055.9,286047005.6,N
1512964075.7,286047007.6,N
1512964095.6,286047012.0,N
1512964115.4,286047011.1,N
1512964135.2,286047013.6,N
1512964155.1,286047017.0,N
1512964156.0,286047017.0,N
1512964175.8,286047013.1,N
1512964195.6,286047014.4,N
1512964215.4,286047017.8,N
1512964235.3,286047025.6,Y
1512964255.1,286047024.0,P
1512964275.8,286047024.6,P
1512964295.7,286047022.7,N
1512964315.5,286047023.5,Y
1512964335.3,286047003.9,P
1512964355.2,286047004.4,N
1512964375.0,286047002.3,N
1512964375.9,286047002.3,N
1512964395.7,286046995.0,N
1512964415.6,286046996.9,N
1512964435.4,286046997.2,N
1512964455.2,286046998.0,N
1512964475.1,286046994.3,N
1512964476.0,286046994.3,N
1512964495.8,286046992.4,N
1512964515.6,286046991.1,N
1512964535.5,286046993.2,N
1512964555.3,286046992.3,N
1512964575.1,286046990.3,N
1512964595.9,286046987.0,N
1512964615.7,286046989.9,N
1512964635.5,286046987.2,N
1512964655.3,286046985.4,N
1512964675.2,286046987.7,N
1512964695.0,286046987.9,N
1512964695.9,286046987.9,N
1512964715.7,286046986.2,N
1512964735.6,286046982.9,N
1512964755.4,286046979.5,N
1512964775.2,286046977.3,N
1512964795.1,286046978.1,N
1512964796.0,286046978.1,N
